Regional Weather Roundup
Issued by NWS

Home | Current Version | Previous Version | Text Only | Print | Product List | Glossary On
Versions: 1 2 3 4 5 6 7 8 9 10 11 12 13 14 15 16 17 18 19 20 21 22 23 24 25 26 27 28 29 30 31 32 33 34 35 36 37 38 39 40 41 42 43 44 45 46 47 48 49 50
000
ASHW40 PHFO 011530
RWRHI

WEATHER ROUNDUP FOR HAWAII
NATIONAL WEATHER SERVICE HONOLULU HI
500 AM HST SUN MAR 01 2015

THIS IS AN AUTOMATED REPORT THAT HAS NOT BEEN QUALITY CONTROLLED.

NOTE..."FAIR" INDICATES FEW OR NO CLOUDS BELOW 12,000 FEET WITH NO
SIGNIFICANT WEATHER AND/OR OBSTRUCTIONS TO VISIBILITY.

* - THESE SITES REPORT LIMITED FIELDS

HIZ001>004-011600-
KAUAI-NIIHAU-

CITY           SKY/WX    TMP DP  RH WIND       PRES   REMARKS
LIHUE APT      CLEAR     69  62  78 N12       30.01R
PORT ALLEN*      N/A     64 N/A N/A N6          N/A
POIPU*         NOT AVBL
PRINCEVILLE*     N/A     70 N/A N/A MISG        N/A
KOKOLE POINT*  NOT AVBL
MOLOAA DAIRY*  NOT AVBL
WAIMEA HTS*    NOT AVBL
PUU OPAE*      NOT AVBL
PUU LUA*       NOT AVBL
MAKAHA RIDGE*  NOT AVBL
$$

HIZ005>011-011600-
OAHU-

CITY           SKY/WX    TMP DP  RH WIND       PRES   REMARKS
HONOLULU       PTCLDY    71  63  75 NW10      29.95S
KALAELOA       CLEAR     70  62  76 N8        29.96F
KANEOHE MCB    MOCLDY    73  65  75 N15       29.95F
WHEELER FIELD  FAIR      66  63  89 NW8       29.97S
BELLOWS*         N/A    N/A N/A N/A NE6G18      N/A
KAHUKU*          N/A    N/A N/A N/A N3G10       N/A
WHEELER*       NOT AVBL
WAIANAE HARBOR NOT AVBL
DILLINGHAM*      N/A     70  66  88 MISG        N/A
KAHUKU TRN*      N/A     66  59  77 NE7G13      N/A
KAWAILOA*        N/A     64  61  88 NE8G15      N/A
KII*             N/A     73  64  73 N13         N/A
MAKUA RANGE*     N/A     70  64  83 E16G24      N/A
OAHU FOREST NW NOT AVBL
SCHOFIELD BRK*   N/A     64  61  88 MISG        N/A
SCHOFIELD S*   NOT AVBL
WAIANAE VLY*   NOT AVBL
KUAOKALA*      NOT AVBL
HONOULIUULI*   NOT AVBL
MOKUOLOE IS*     N/A    N/A N/A N/A MISG        N/A
PALEHUA*       NOT AVBL
WAIAWA PHB*    NOT AVBL
$$

HIZ012>013-011600-
MOLOKAI-

CITY           SKY/WX    TMP DP  RH WIND       PRES   REMARKS
MOLOKAI AIRPT  CLOUDY    72  68  88 N12       29.98R
KALAUPAPA      NOT AVBL
MAKAPULAPAI*   NOT AVBL
MOLOKAI 1*     NOT AVBL
PUU ALII*        N/A     58  58 100 NE2G12      N/A
$$

HIZ016-011600-
KAHOOLAWE-

CITY           SKY/WX    TMP DP  RH WIND       PRES   REMARKS
KAHOOLAWE*     NOT AVBL
HAKIOAWA*        N/A     66  66 100 MISG      30.37S
HONOKANAIA*      N/A     73  68  83 N13G25    29.94F
KANELOA*         N/A     72  68  88 MISG      29.17R
KEALIALALO*    NOT AVBL
LUA MAKIKA*    NOT AVBL
$$

HIZ014>015-011600-
LANAI-

CITY           SKY/WX    TMP DP  RH WIND       PRES   REMARKS
LANAI CITY     FAIR      68  67  96 NE17      29.99S
LANAI 1*       NOT AVBL
$$

HIZ017>028-011600-
MAUI-

CITY           SKY/WX    TMP DP  RH WIND       PRES   REMARKS
KAHULUI        LGT RAIN  72  68  88 N15       29.97R
KAPALUA-W MAUI NOT AVBL
HANA AIRPORT   PTCLDY    66  66 100 CALM      29.98S
HANA*            N/A     66 N/A N/A S3          N/A
HALEAKALA SUMM   N/A     37  34  87 NE10        N/A
MAALAEA BAY*   NOT AVBL
HALEAKALA*     NOT AVBL
KAUPO GAP*     NOT AVBL
KULA 1*          N/A     48  39  71 CALM        N/A
$$

HIZ023>026-011600-
BIG ISLAND OF HAWAII COAST AND LOWER SLOPES-

CITY           SKY/WX    TMP DP  RH WIND       PRES   REMARKS
KAILUA KONA    PTCLDY    73  66  78 E5        29.90F
HILO           CLOUDY    68  63  84 SW7       29.96R
HONOKAA*       NOT AVBL
KAWAIHAE MWT*    N/A     73 N/A N/A NE8         N/A
KAWAIHAE*        N/A     73 N/A N/A NE3         N/A
SOUTH POINT*     N/A     68 N/A N/A NE9         N/A
UPOLU AIRPORT*   N/A    N/A N/A N/A E8          N/A
KAMUELA*       SUNNY     61  59  94 NE8       30.03S
HAKALAU*         N/A     45  43  93 SW5         N/A
KALOKO-HONOKO*   N/A     70  63  78 NE5         N/A
PALI 2*          N/A     63  57  82 N9          N/A
KEALAKOMO*       N/A     73  64  73 N8G16       N/A
KAUPULEHU*     NOT AVBL
KAPAPALA*        N/A     58  56  92 CALM        N/A
LOWER KAHUKU*    N/A     57  55  94 N2          N/A
PUHE CS*         N/A     72  63  73 NE3         N/A
PUHO CS*         N/A     70  59  68 NE3         N/A
PTA KEAMUKU*     N/A     57  54  88 CALM        N/A
WAIKOLOA*      NOT AVBL
$$

HIZ027>028-011600-
BIG ISLAND OF HAWAII INTERIOR AND SUMMMITS-

CITY           SKY/WX    TMP DP  RH WIND       PRES   REMARKS
BRADSHAW FIELD MOCLDY    45  43  94 SE5       30.24R
MK VISITOR CEN NOT AVBL
MAUNA KEA*       N/A     25  23  93 NW22        N/A  WCI  10
MAUNA LOA*       N/A    N/A N/A N/A MISG        N/A
MAUNA LOA 1*   NOT AVBL
PTA KIPUKA*      N/A     46  43  87 E5          N/A
PTA RANGE 17*    N/A     48  46  93 E5          N/A
PTA WEST*        N/A     50  48  93 SE12        N/A
NENE CABIN*      N/A     45  37  76 N5          N/A
AHUMOA*        NOT AVBL
PTA PORTABLE*  NOT AVBL
PUU MALI*      NOT AVBL
$$

HIC003-011600-
NORTHWEST ISLANDS-

CITY           SKY/WX    TMP DP  RH WIND       PRES   REMARKS
MIDWAY ISLAND  CLOUDY    57  45  62 E7        30.26S
MIDWAY NOS*    NOT AVBL
FRENCH FRIGATE NOT AVBL
$$

PHZ110>124-180-011600-
BUOY REPORTS

STATION/POSITION TIME  TEMP    WIND        PRES    WAVE   SWELL
                       AIR SEA DIR/SP/G            HT/PER HT/DIR
                 (UTC) (F)     (DEG/KT/KT) (MB)    (FT/S) (FT/D)
BUOY 51001       NOT AVBL
BUOY 51101       1500   64 71   40/ 14/ 17 1018.5R   6/10   5/ 60
BUOY 51100       1400   73 75  150/ 10/ 14 1014.4
BUOY 51003       1500   76 78   40/ 16/ 19 1013.5F   7/ 7   3
BUOY 51004       1444   78 79   70/ 14/ 16 1012.4R   7/ 9   5/100
BARBERS PT BUOY  NOT AVBL
WAIMEA BAY BUOY  1500      78                N/A     5/ 8   2/ 20
KAILUA BAY BUOY  1500      77                N/A     5/ 9   2/ 70
LANAI BUOY       1500      76                N/A     3/13   2/190
BARBERS PT 2     1500      78                N/A     3/11   2/220
PAUWELA MAUI     1500      75                N/A     7/10   2/ 70
HILO             1500      77                N/A     6/ 9   2/100
KANEOHE BAY BUOY 1500      77                N/A     4/ 8
HANALEI KAUAI    NOT AVBL
KAHULUI HARBOR   1500   71 76   20/ 14/ 18 1014.4R
HONOLULU HARBOR  1500   73 76   90/  1/  5 1014.0R
KILO NALU        NOT AVBL
HILO HARBOR      1500   68 77  190/  5/  6 1013.5
MOKUOLOE         1500      76              1014.9F
NAWILIWILI       1500   67 77  250/  6/  8 1015.8R
WHOTS BUOY       NOT AVBL
BUOY 51028       NOT AVBL
$$

......................KEY........................................
  SKY/WX - SKY CONDITIONS/PRESENT WEATHER
  TMP    - TEMPERATURE IN FAHRENHEIT
  DWPT   - DEWPOINT IN FAHRENHEIT
  RH     - RELATIVE HUMIDITY IN PERCENT
  WIND   - DIRECTION AND SPEED /MPH FOR ISLANDS...KTS FOR BUOYS/
  PRES   - MEAN SEA LEVEL PRESSURE IN INCHES OF HG
  VSB    - VISIBILITY IN MILES
  HX     - HEAT INDEX
  WCI    - WIND CHILL INDEX
  VRB    - VARIABLE WIND DIRECTION
  N/A    - NOT AVAILABLE



USA.gov is the U.S. government's official web portal to all federal, state and local government web resources and services.